SCP
0 0 0 0 0 0 0 0 0 0 0 0 0 0 0 0 0 -0 0 -0 -0 0 0 0 0 0 0 0 0 0 0 0 0 0 0 0 0 0
0 0 0 0 0 0 0 0 0 0 0 0 0 0 0 0 0 0 0 0 -0 -0 -0 -0 -0 0 0 0 0 0 0 0 0 0 0 0 0 0
0 0 0 0 0 0 0 0 0 0 0 -0 0 0 0 -0 -0 -0 -0 -0 -0 -0 -0 0 0 0 0 0 0 0 0 0 0 0 0 0 0 0
0 0 0 0 0 0 0 0 0 0 0 0 0 0 -0 0 0 -0 -0 -0 0 0 -0 0 0 0 0 0 0 0 0 0 0 0 0 0 0 0
0 0 0 0 0 0 0 0 0 0 0 0 0 0 0 0 0 0 0 0 0 0 0 0 0 0 0 0 0 0 0 0 0 0 0 0 0 0
0 0 0 0 0 0 0 0 0 0 0 0 0 0 0 0 0 0 0 0 0 0 0 0 0 0 0 0 0 0 0 0 0 0 0 0 0 0
0 0 0 0 0 0 0 0 0 0 0 0 0 0 0 0 0 0 0 0 0 0 0 0 0 0 0 0 0 0 0 0 0 0 0 0 0 0
0 0 0 0 0 0 0 0 0 0 0 0 0 0 0 0 0 0 0 0 0 0 0 0 0 0 0 0 0 0 0 0 0 0 0 0 0 0
0 0 0 0 0 0 0 0 0 0 0 0 0 0 0 0 0 0 0 0 0 0 0 0 0 0 0 0 0 0 0 -0 0 0 0 0 0 0
0 0 0 0 0 0 0 0 0 0 0 0 0 0 0 0 0 0 0 0 0 0 0 0 0 0 0 0 0 0 0 -0 0 0 0 0 0 0
0 0 0 0 0 0 0 0 0 0 0 0 0 0 0 0 0 0 0 0 0 -0 0 0 0 0 0 0 -0 -0 0 0 0 0 0 0 0 0
0 0 0 0 0 0 0 0 0 0 0 0 0 0 0 0 0 0 0 0 0 0 0 0 0 0 0 0 0 0 -0 0 0 0 0 0 0 0
0 0 0 0 0 0 0 0 0 0 0 0 0 0 0 0 0 0 0 0 0 0 0 0 0 0 0 0 0 -0 0 0 0 0 0 0 0 0
0 0 0 0 0 0 0 0 0 0 0 0 0 0 0 0 0 0 0 0 0 0 0 0 0 0 0 0 0 0 0 0 0 0 0 0 0 0
0 0 0 0 0 0 0 0 0 0 0 0 0 0 0 0 0 0 0 0 0 0 0 0 0 0 0 0 0 0 0 0 0 0 0 0 0 0
0 0 0 0 0 0 0 0 0 0 0 0 0 0 0 0 0 0 0 0 0 -0 0 0 0 0 0 0 0 0 0 0 0 0 0 0 0 0
0 0 0 0 0 0 0 0 0 0 0 0 0 -0 0 0 0 0 0 0 0 0 0 0 0 0 0 0 0 0 0 0 0 -0 0 0 -0 -0
0 0 0 0 0 0 0 0 0 0 0 0 -0 0 0 0 -0 0 0 0 0 0 0 0 0 0 0 0 0 0 0 -0 0 0 -0 0 0 0
0 0 0 0 0 0 0 0 -0 0 0 0 0 0 0 0 0 0 0 0 0 0 0 0 0 0 0 0 0 -0 0 0 0 0 -0 0 -0 0
0 0 0 0 0 0 0 0 -0 0 0 0 0 0 0 0 0 -0 -0 0 0 -0 0 0 0 0 0 -0 -0 -0 0 0 0 0 0 0 0 0
0 0 0 0 0 -0 -0 -0 -0 -0 -0 -0 -0 0 0 0 0 -0 -0 -0 0 0 0 0 -0 -0 0 -0 0 -0 -0 0 -0 0 -0 -0 0 0
0 0 0 -0 -0 -0 -0 -0 -0 -0 0 -0 0 0 0 0 0 0 0 0 0 0 0 0 0 -0 0 0 -0 -0 0 0 -0 0 0 0 0 0
0 0 0 0 -0 0 -0 -0 0 0 0 0 0 0 -0 -0 0 0 -0 0 -0 0 0 0 -0 -0 -0 -0 -0 -0 0 -0 -0 0 0 -0 0 0
Wind_Speed_500mb
35 34 36 31 30 25 28 24 26 23 28 27 28 13 8 11 16 23 24 18 14 12 14 16 18 19 25 29 33 36 39 41 42 42 45 44 44 49
28 28 34 30 31 27 35 22 23 20 20 20 25 22 16 13 19 24 26 22 22 20 22 27 29 27 29 32 35 37 40 40 41 41 43 44 47 49
27 23 31 29 30 25 29 25 22 26 26 22 15 20 20 22 19 21 20 22 19 19 22 29 27 30 35 37 36 39 43 46 48 49 47 47 48 54
36 28 24 29 27 24 19 19 22 28 30 28 26 17 21 25 24 26 22 21 20 19 19 23 25 31 30 33 36 37 34 41 48 53 55 55 51 55
37 40 32 28 31 30 31 20 20 25 19 29 32 28 26 24 29 24 23 25 26 26 29 31 31 35 33 35 39 36 45 53 51 56 56 61 63 60
47 41 42 32 32 33 43 34 25 29 21 24 28 33 27 25 31 29 23 21 29 28 36 30 32 34 36 39 43 48 61 67 59 60 59 63 66 65
50 45 37 38 37 36 39 38 34 32 31 23 21 25 22 26 16 20 19 28 27 31 33 30 34 36 40 42 44 53 68 63 62 65 63 56 59 61
58 51 40 44 33 39 40 39 34 34 34 31 31 29 27 25 18 20 25 27 31 24 22 29 32 34 39 43 47 63 58 53 59 55 55 53 52 57
65 49 42 40 41 44 42 39 34 34 38 37 38 33 35 24 26 27 25 30 40 33 37 37 31 31 37 38 45 64 43 54 46 41 41 38 44 52
59 48 49 46 40 35 36 38 40 41 41 41 39 35 31 30 27 32 42 48 43 42 12 23 18 33 30 42 53 34 46 48 35 37 37 37 37 40
60 44 45 48 48 39 34 41 44 45 40 34 37 43 37 36 37 39 38 40 41 34 21 14 27 31 33 40 50 42 37 40 32 31 34 29 27 30
62 49 41 39 39 38 40 45 45 49 45 44 43 44 38 36 33 36 35 32 31 28 26 33 31 33 35 32 50 32 35 28 25 30 18 15 17 19
53 40 45 52 45 48 49 44 48 52 52 53 54 52 37 36 36 34 29 29 29 23 31 33 36 26 34 45 52 37 38 28 20 21 10 8 12 18
57 54 56 57 55 59 59 58 56 48 49 51 55 59 42 34 31 33 37 39 28 27 24 27 25 22 31 40 50 48 25 23 14 13 12 5 11 18
38 43 52 59 68 68 65 61 56 64 54 54 58 61 49 45 42 33 30 41 35 31 30 29 28 23 30 30 46 38 28 24 13 12 14 14 15 23
47 45 52 60 66 65 65 67 65 66 63 54 55 56 53 40 43 36 37 30 27 34 27 27 28 27 24 30 34 39 24 20 9 5 11 17 18 21
57 59 58 55 52 52 54 56 52 44 46 50 59 54 47 37 36 28 28 31 40 25 29 28 22 33 31 29 31 37 20 17 11 10 4 6 19 20
64 56 52 53 56 57 49 51 45 45 51 48 38 46 30 28 26 25 29 26 32 28 23 27 18 29 29 30 26 30 17 14 7 4 12 7 10 13
52 50 47 54 56 51 47 39 45 49 20 22 28 27 31 25 28 28 24 25 28 19 22 17 24 24 32 23 14 20 14 9 4 2 4 11 15 15
63 56 49 51 54 51 47 47 35 27 30 30 31 32 28 25 31 29 25 18 16 11 23 23 17 13 14 19 4 12 8 12 7 6 9 11 19 21
64 61 57 53 52 54 50 53 48 40 38 26 27 22 25 24 27 33 22 17 24 21 16 9 7 7 8 9 10 6 15 17 23 24 19 17 16 25
69 61 64 58 54 49 58 45 41 39 27 22 28 24 19 17 29 23 10 5 16 15 18 11 14 24 20 6 13 7 11 6 10 8 12 16 15 9
64 62 61 55 51 57 50 43 29 22 22 24 21 15 15 17 30 28 30 10 20 17 15 17 19 29 17 17 5 15 15 10 12 15 19 8 10 14
Wind_Direction_500mb
350 348 357 343 3 332 330 334 334 329 337 349 342 334 290 275 291 304 290 296 305 300 306 312 300 294 280 272 270 270 271 270 271 268 263 255 252 251
345 337 340 344 353 339 340 319 331 328 313 342 343 330 319 279 285 287 288 293 294 283 287 294 299 289 283 280 280 275 269 271 272 270 267 261 254 253
331 321 333 340 340 351 347 348 333 337 321 311 314 334 328 322 308 304 313 300 308 281 281 292 303 300 295 289 284 281 276 272 268 267 267 264 257 250
323 311 309 318 326 327 331 328 347 334 333 337 341 326 315 314 308 322 319 313 323 309 296 297 311 319 314 303 294 292 294 295 283 272 267 270 266 257
307 307 303 293 303 306 321 321 325 319 308 306 324 328 308 309 304 299 307 322 319 309 307 306 310 316 311 311 311 303 304 308 292 279 271 264 261 259
305 299 303 298 288 287 303 311 307 309 317 317 323 314 329 317 304 308 305 321 314 312 307 304 304 307 305 305 305 304 310 309 299 288 274 266 259 254
308 302 294 293 289 295 298 300 305 310 306 301 298 320 322 329 328 322 305 309 300 307 306 294 295 290 300 301 298 311 312 303 300 294 285 271 257 249
310 307 298 291 296 297 288 298 303 308 310 305 291 287 297 297 295 290 292 292 300 283 285 280 283 292 295 290 292 311 308 295 296 288 282 272 254 247
308 306 300 299 285 286 287 288 293 295 298 300 294 288 291 289 285 292 300 301 308 306 295 278 285 286 294 282 301 312 301 308 297 291 288 277 265 248
304 306 303 298 310 296 290 290 293 296 296 293 292 288 283 293 286 296 299 303 305 316 300 266 281 292 287 295 320 312 308 312 296 289 290 278 266 252
293 291 292 295 299 303 291 287 290 303 307 300 284 284 277 285 281 286 295 300 299 311 294 291 325 311 310 316 333 321 320 321 310 302 291 275 262 246
282 285 297 299 299 291 296 298 288 303 306 297 298 293 280 277 265 275 279 282 290 297 304 308 319 319 323 325 341 327 336 327 315 308 288 268 256 238
291 277 282 283 283 288 296 292 295 306 303 296 294 298 282 275 275 286 278 285 281 283 295 298 311 315 310 325 341 346 340 345 327 315 293 263 232 209
301 289 281 279 284 284 283 286 292 294 295 298 289 288 284 261 264 267 289 285 264 279 288 283 304 308 308 325 335 337 336 339 348 337 318 218 196 200
305 291 284 278 275 285 276 280 283 280 294 297 294 284 279 264 256 258 264 280 259 267 282 292 291 290 305 321 340 337 330 333 322 348 297 272 211 205
326 306 294 293 294 297 288 288 284 275 282 292 272 273 271 269 255 247 267 279 267 275 295 277 294 269 285 315 320 344 330 330 312 335 337 217 210 219
331 328 322 316 312 308 302 301 301 288 288 297 291 270 263 266 255 239 255 266 262 287 284 279 279 261 265 296 315 334 331 323 308 319 332 351 228 210
328 337 330 322 316 315 309 314 308 290 289 291 269 264 258 274 228 233 247 248 264 261 254 277 244 276 261 282 310 330 326 321 320 314 244 220 134 161
337 332 325 324 327 324 320 313 316 313 293 297 291 274 272 245 236 244 242 252 248 249 265 264 291 278 259 266 312 359 341 301 283 194 230 210 216 196
341 335 331 333 339 336 334 333 333 309 298 288 285 266 254 265 241 231 242 266 236 249 268 249 325 250 289 252 266 6 76 71 96 137 121 114 166 185
343 341 340 336 332 331 325 322 321 303 299 275 285 279 268 259 236 222 245 250 253 253 246 257 325 232 177 206 351 349 151 102 85 73 102 108 123 147
340 342 342 342 337 330 332 323 317 315 304 275 288 270 243 255 208 225 215 214 256 262 235 239 291 201 207 152 0 202 175 157 132 88 66 69 72 63
347 345 345 342 345 342 337 333 331 331 320 308 297 274 236 236 226 219 220 262 261 256 289 234 242 224 226 197 314 161 200 178 162 113 92 55 46 92
Wind_Speed_850mb
35 34 36 31 30 25 28 24 26 23 28 27 28 13 8 11 16 23 24 18 14 12 14 16 18 19 25 29 33 36 39 41 42 42 45 44 44 49
28 28 34 30 31 27 35 22 23 20 20 20 25 22 16 13 19 24 26 22 22 20 22 27 29 27 29 32 35 37 40 40 41 41 43 44 47 49
27 23 31 29 30 25 29 25 22 26 26 22 15 20 20 22 19 21 20 22 19 19 22 29 27 30 35 37 36 39 43 46 48 49 47 47 48 54
36 28 24 29 27 24 19 19 22 28 30 28 26 17 21 25 24 26 22 21 20 19 19 23 25 31 30 33 36 37 34 41 48 53 55 55 51 55
37 40 32 28 31 30 31 20 20 25 19 29 32 28 26 24 29 24 23 25 26 26 29 31 31 35 33 35 39 36 45 53 51 56 56 61 63 60
47 41 42 32 32 33 43 34 25 29 21 24 28 33 27 25 31 29 23 21 29 28 36 30 32 34 36 39 43 48 61 67 59 60 59 63 66 65
50 45 37 38 37 36 39 38 34 32 31 23 21 25 22 26 16 20 19 28 27 31 33 30 34 36 40 42 44 53 68 63 62 65 63 56 59 61
58 51 40 44 33 39 40 39 34 34 34 31 31 29 27 25 18 20 25 27 31 24 22 29 32 34 39 43 47 63 58 53 59 55 55 53 52 57
65 49 42 40 41 44 42 39 34 34 38 37 38 33 35 24 26 27 25 30 40 33 37 37 31 31 37 38 45 64 43 54 46 41 41 38 44 52
59 48 49 46 40 35 36 38 40 41 41 41 39 35 31 30 27 32 42 48 43 42 12 23 18 33 30 42 53 34 46 48 35 37 37 37 37 40
60 44 45 48 48 39 34 41 44 45 40 34 37 43 37 36 37 39 38 40 41 34 21 14 27 31 33 40 50 42 37 40 32 31 34 29 27 30
62 49 41 39 39 38 40 45 45 49 45 44 43 44 38 36 33 36 35 32 31 28 26 33 31 33 35 32 50 32 35 28 25 30 18 15 17 19
53 40 45 52 45 48 49 44 48 52 52 53 54 52 37 36 36 34 29 29 29 23 31 33 36 26 34 45 52 37 38 28 20 21 10 8 12 18
57 54 56 57 55 59 59 58 56 48 49 51 55 59 42 34 31 33 37 39 28 27 24 27 25 22 31 40 50 48 25 23 14 13 12 5 11 18
38 43 52 59 68 68 65 61 56 64 54 54 58 61 49 45 42 33 30 41 35 31 30 29 28 23 30 30 46 38 28 24 13 12 14 14 15 23
47 45 52 60 66 65 65 67 65 66 63 54 55 56 53 40 43 36 37 30 27 34 27 27 28 27 24 30 34 39 24 20 9 5 11 17 18 21
57 59 58 55 52 52 54 56 52 44 46 50 59 54 47 37 36 28 28 31 40 25 29 28 22 33 31 29 31 37 20 17 11 10 4 6 19 20
64 56 52 53 56 57 49 51 45 45 51 48 38 46 30 28 26 25 29 26 32 28 23 27 18 29 29 30 26 30 17 14 7 4 12 7 10 13
52 50 47 54 56 51 47 39 45 49 20 22 28 27 31 25 28 28 24 25 28 19 22 17 24 24 32 23 14 20 14 9 4 2 4 11 15 15
63 56 49 51 54 51 47 47 35 27 30 30 31 32 28 25 31 29 25 18 16 11 23 23 17 13 14 19 4 12 8 12 7 6 9 11 19 21
64 61 57 53 52 54 50 53 48 40 38 26 27 22 25 24 27 33 22 17 24 21 16 9 7 7 8 9 10 6 15 17 23 24 19 17 16 25
69 61 64 58 54 49 58 45 41 39 27 22 28 24 19 17 29 23 10 5 16 15 18 11 14 24 20 6 13 7 11 6 10 8 12 16 15 9
64 62 61 55 51 57 50 43 29 22 22 24 21 15 15 17 30 28 30 10 20 17 15 17 19 29 17 17 5 15 15 10 12 15 19 8 10 14
Wind_Direction_850mb
350 348 357 343 3 332 330 334 334 329 337 349 342 334 290 275 291 304 290 296 305 300 306 312 300 294 280 272 270 270 271 270 271 268 263 255 252 251
345 337 340 344 353 339 340 319 331 328 313 342 343 330 319 279 285 287 288 293 294 283 287 294 299 289 283 280 280 275 269 271 272 270 267 261 254 253
331 321 333 340 340 351 347 348 333 337 321 311 314 334 328 322 308 304 313 300 308 281 281 292 303 300 295 289 284 281 276 272 268 267 267 264 257 250
323 311 309 318 326 327 331 328 347 334 333 337 341 326 315 314 308 322 319 313 323 309 296 297 311 319 314 303 294 292 294 295 283 272 267 270 266 257
307 307 303 293 303 306 321 321 325 319 308 306 324 328 308 309 304 299 307 322 319 309 307 306 310 316 311 311 311 303 304 308 292 279 271 264 261 259
305 299 303 298 288 287 303 311 307 309 317 317 323 314 329 317 304 308 305 321 314 312 307 304 304 307 305 305 305 304 310 309 299 288 274 266 259 254
308 302 294 293 289 295 298 300 305 310 306 301 298 320 322 329 328 322 305 309 300 307 306 294 295 290 300 301 298 311 312 303 300 294 285 271 257 249
310 307 298 291 296 297 288 298 303 308 310 305 291 287 297 297 295 290 292 292 300 283 285 280 283 292 295 290 292 311 308 295 296 288 282 272 254 247
308 306 300 299 285 286 287 288 293 295 298 300 294 288 291 289 285 292 300 301 308 306 295 278 285 286 294 282 301 312 301 308 297 291 288 277 265 248
304 306 303 298 310 296 290 290 293 296 296 293 292 288 283 293 286 296 299 303 305 316 300 266 281 292 287 295 320 312 308 312 296 289 290 278 266 252
293 291 292 295 299 303 291 287 290 303 307 300 284 284 277 285 281 286 295 300 299 311 294 291 325 311 310 316 333 321 320 321 310 302 291 275 262 246
282 285 297 299 299 291 296 298 288 303 306 297 298 293 280 277 265 275 279 282 290 297 304 308 319 319 323 325 341 327 336 327 315 308 288 268 256 238
291 277 282 283 283 288 296 292 295 306 303 296 294 298 282 275 275 286 278 285 281 283 295 298 311 315 310 325 341 346 340 345 327 315 293 263 232 209
301 289 281 279 284 284 283 286 292 294 295 298 289 288 284 261 264 267 289 285 264 279 288 283 304 308 308 325 335 337 336 339 348 337 318 218 196 200
305 291 284 278 275 285 276 280 283 280 294 297 294 284 279 264 256 258 264 280 259 267 282 292 291 290 305 321 340 337 330 333 322 348 297 272 211 205
326 306 294 293 294 297 288 288 284 275 282 292 272 273 271 269 255 247 267 279 267 275 295 277 294 269 285 315 320 344 330 330 312 335 337 217 210 219
331 328 322 316 312 308 302 301 301 288 288 297 291 270 263 266 255 239 255 266 262 287 284 279 279 261 265 296 315 334 331 323 308 319 332 351 228 210
328 337 330 322 316 315 309 314 308 290 289 291 269 264 258 274 228 233 247 248 264 261 254 277 244 276 261 282 310 330 326 321 320 314 244 220 134 161
337 332 325 324 327 324 320 313 316 313 293 297 291 274 272 245 236 244 242 252 248 249 265 264 291 278 259 266 312 359 341 301 283 194 230 210 216 196
341 335 331 333 339 336 334 333 333 309 298 288 285 266 254 265 241 231 242 266 236 249 268 249 325 250 289 252 266 6 76 71 96 137 121 114 166 185
343 341 340 336 332 331 325 322 321 303 299 275 285 279 268 259 236 222 245 250 253 253 246 257 325 232 177 206 351 349 151 102 85 73 102 108 123 147
340 342 342 342 337 330 332 323 317 315 304 275 288 270 243 255 208 225 215 214 256 262 235 239 291 201 207 152 0 202 175 157 132 88 66 69 72 63
347 345 345 342 345 342 337 333 331 331 320 308 297 274 236 236 226 219 220 262 261 256 289 234 242 224 226 197 314 161 200 178 162 113 92 55 46 92